CT1OY Oeiras PT current weather conditions

sailwx.info

Wind from 173

Air temperature 20.0° C
Dewpoint 17.4° C

Last reported at 2014-Sep-19 18:51 UTC.
Time now 2014-Sep-19 19:56 UTC

Location: N 38°44' W 009°17'.
View on Google Maps.

See reports from other nearby stations

  
Tides and Currents Weather Stations Pressure Air Temp Water Temp Dewpoint Dewpoint Depression Visibility Wind Speed Wind Dir Waves Ship Positions
date/time (UTC)wind fromknots sea level pressurealtimeterstation pressurevisibilityair tempwater tempwave heightnotes
2014-Sep-19 18:51 173 20.0
2014-Sep-19 18:41 255 20.6
2014-Sep-19 18:11 145 21.1
2014-Sep-19 18:01 192 4 21.1
2014-Sep-19 17:41 014 0 21.7
2014-Sep-19 17:31 214 4 21.7
2014-Sep-19 17:01 205 0 22.2
2014-Sep-19 16:41 176 0 22.2
2014-Sep-19 16:11 208 0 22.2
2014-Sep-19 15:51 208 1 22.2
2014-Sep-19 15:41 193 1 22.2
2014-Sep-19 15:21 176 0 22.2
2014-Sep-19 15:11 229 2 22.2
2014-Sep-19 14:21 267 6 22.2
2014-Sep-19 14:11 262 2 22.2
2014-Sep-19 14:01 179 2 22.8
2014-Sep-19 13:51 106 2 22.8
2014-Sep-19 13:31 118 4 22.2
2014-Sep-19 13:11 235 0 gusting 11 22.8
2014-Sep-19 13:01 276 1 22.2
2014-Sep-19 12:41 208 2 22.2
2014-Sep-19 12:11 114 2 gusting 10 22.2
2014-Sep-19 12:01 191 4 gusting 10 22.2
2014-Sep-19 11:51 183 1 21.7
2014-Sep-19 11:41 166 5 gusting 11 22.2
2014-Sep-19 10:41 125 2 20.6
2014-Sep-19 10:31 173 1 20.0
2014-Sep-19 10:21 248 1 19.4
2014-Sep-19 10:11 121 4 19.4
2014-Sep-19 10:01 236 18.9
2014-Sep-19 09:51 158 4 18.9
2014-Sep-19 09:31 117 18.3
2014-Sep-19 09:11 143 18.3
2014-Sep-19 09:01 127 0 18.9
2014-Sep-19 08:41 093 1 18.3
2014-Sep-19 08:31 141 18.9
2014-Sep-19 08:11 228 18.9
2014-Sep-19 08:01 072 18.9
2014-Sep-19 07:21 276 18.3
2014-Sep-19 07:01 276 17.8
2014-Sep-19 06:41 276 16.7
2014-Sep-19 06:31 276 16.7
2014-Sep-19 06:11 276 16.7
2014-Sep-19 06:01 276 16.7
2014-Sep-19 05:41 276 16.7
2014-Sep-19 05:31 276 16.7
2014-Sep-19 05:01 276 16.7
2014-Sep-19 04:51 276 17.2
2014-Sep-19 04:41 276 17.2
2014-Sep-19 04:31 236 17.2
2014-Sep-19 04:21 240 17.2
2014-Sep-19 03:31 262 17.8
2014-Sep-19 03:11 241 0 17.8
2014-Sep-19 03:01 278 17.8
2014-Sep-19 02:51 278 17.8
2014-Sep-19 02:01 132 18.3
2014-Sep-19 01:51 248 18.3
2014-Sep-19 01:21 250 18.3
2014-Sep-19 01:11 256 18.3
2014-Sep-19 00:51 256 18.3
2014-Sep-19 00:41 242 18.3
2014-Sep-19 00:31 241 18.3
2014-Sep-19 00:01 129 18.3
2014-Sep-18 23:51 129 17.8
2014-Sep-18 23:41 129 17.8
2014-Sep-18 23:31 127 17.8
2014-Sep-18 23:21 131 17.8
2014-Sep-18 23:11 131 17.8
2014-Sep-18 23:01 118 17.8
2014-Sep-18 22:21 240 17.8
2014-Sep-18 22:01 240 17.8
2014-Sep-18 21:31 239 17.8
2014-Sep-18 21:21 239 18.3
2014-Sep-18 21:01 118 18.3
2014-Sep-18 20:51 071 18.3
2014-Sep-18 19:51 143 18.3
2014-Sep-18 19:41 148 1 18.3
2014-Sep-18 19:31 109 5 18.3
2014-Sep-18 19:22 267 0 18.3
2014-Sep-18 18:21 243 1 18.3
2014-Sep-18 18:01 011 1 18.3
2014-Sep-18 17:41 125 3 17.8
2014-Sep-18 17:21 132 1 17.8
2014-Sep-18 17:11 139 1 17.8
2014-Sep-18 16:51 187 3 18.3
2014-Sep-18 16:01 127 6 gusting 15 20.6
2014-Sep-18 15:51 256 3 20.6
2014-Sep-18 15:41 100 1 21.1
2014-Sep-18 15:31 131 3 gusting 10 21.1
2014-Sep-18 15:21 270 2 gusting 11 21.7
2014-Sep-18 15:01 352 4 21.1
2014-Sep-18 14:51 102 4 21.1
2014-Sep-18 14:31 122 6 gusting 13 21.1
2014-Sep-18 14:22 152 3 21.1
2014-Sep-18 14:11 194 4 20.0
2014-Sep-18 13:51 093 0 gusting 13 20.0
2014-Sep-18 13:21 122 4 gusting 13 22.8
2014-Sep-18 13:11 155 6 gusting 13 22.8
2014-Sep-18 12:31 132 5 gusting 11 22.2
2014-Sep-18 12:21 226 2 gusting 12 22.2
2014-Sep-18 12:11 188 3 gusting 11 21.7
2014-Sep-18 12:01 149 1 gusting 13 21.1
2014-Sep-18 11:51 277 0 21.1
2014-Sep-18 11:41 051 1 21.1
2014-Sep-18 11:21 242 6 gusting 10 21.1
2014-Sep-18 10:51 101 22.2
2014-Sep-18 10:31 260 0 gusting 12 21.1
2014-Sep-18 10:21 298 6 gusting 11 21.7
2014-Sep-18 10:11 136 1 gusting 12 21.7
2014-Sep-18 09:41 235 5 gusting 14 22.2
2014-Sep-18 09:01 177 5 gusting 12 21.7
2014-Sep-18 08:51 143 5 gusting 13 22.2
2014-Sep-18 08:41 131 0 gusting 12 21.7
2014-Sep-18 08:21 207 1 gusting 13 21.7
2014-Sep-18 08:11 108 5 21.7
2014-Sep-18 08:01 194 1 gusting 10 21.1
2014-Sep-18 07:51 089 1 21.1
2014-Sep-18 07:21 153 4 20.6
2014-Sep-18 07:11 239 2 20.0
2014-Sep-18 07:01 155 1 19.4
2014-Sep-18 06:41 132 2 19.4
2014-Sep-18 06:31 226 1 19.4
2014-Sep-18 06:21 169 5 19.4
2014-Sep-18 06:11 131 1 19.4
2014-Sep-18 06:01 154 2 19.4
2014-Sep-18 05:51 031 2 19.4
2014-Sep-18 05:41 059 3 19.4
2014-Sep-18 05:31 092 3 19.4
2014-Sep-18 05:21 155 2 19.4
2014-Sep-18 05:11 086 3 19.4
2014-Sep-18 05:01 293 1 19.4
2014-Sep-18 04:51 156 1 19.4
2014-Sep-18 04:41 145 0 18.9
2014-Sep-18 04:21 233 1 18.9
2014-Sep-18 04:11 155 1 18.9
2014-Sep-18 04:01 229 0 18.9
2014-Sep-18 03:51 236 1 18.9
2014-Sep-18 03:41 131 2 18.9
2014-Sep-18 03:31 191 1 19.4
2014-Sep-18 03:21 256 2 19.4
2014-Sep-18 03:11 228 3 19.4
2014-Sep-18 02:41 198 3 19.4
2014-Sep-18 02:31 103 1 19.4
2014-Sep-18 02:21 124 0 19.4
2014-Sep-18 02:11 162 19.4
2014-Sep-18 02:01 128 4 19.4
2014-Sep-18 01:21 111 0 19.4
2014-Sep-18 01:11 201 19.4
2014-Sep-18 01:01 219 2 19.4
2014-Sep-18 00:51 231 0 19.4
2014-Sep-18 00:41 086 1 19.4
2014-Sep-18 00:31 235 0 19.4
2014-Sep-18 00:11 069 19.4
2014-Sep-17 23:41 159 0 19.4
2014-Sep-17 23:31 114 19.4
2014-Sep-17 23:21 200 3 19.4
2014-Sep-17 23:11 158 2 19.4
2014-Sep-17 22:41 264 1 19.4
2014-Sep-17 22:31 124 19.4
2014-Sep-17 22:21 224 1 20.0
2014-Sep-17 21:31 201 1 19.4
2014-Sep-17 21:21 200 19.4
2014-Sep-17 20:41 126 0 19.4
2014-Sep-17 20:31 252 19.4
2014-Sep-17 20:11 236 1 19.4
2014-Sep-17 20:01 195 0 19.4
2014-Sep-17 19:51 231 19.4
2014-Sep-17 19:41 266 19.4
2014-Sep-17 19:31 193 0 19.4
2014-Sep-17 19:21 135 4 20.0
2014-Sep-17 19:11 300 20.6
2014-Sep-17 19:01 345 0 20.6